ARABSAT-5C

Last updated on Sat Apr 13 2024 01:02:37 GMT+0100 (British Summer Time)

1 37810U 11049B 24103.56230032 .00000115 00000+0 00000+0 0 9990 2 37810 0.0589 24.8138 0001376 63.0542 335.7922 1.00273214 46074
UTC large
Height (km)
Speed (km/s)
/
Latitude / Longitude
Inclination (degrees)
Orbital Period (minutes)
Azimuth
Elevation
Range (km)
Doppler Factor

Next 0 passes for location: London (51.5072 / 0.1276)

Sorry there are no passes over London.